Location: Devore Heights
(34.2372°N, 117.4156°W)
Time: 02:29:24
(UTC+00:00)

SR - Pass Details

Date: 13 September 2024
Orbit: 578 x 855 km, 66.7° (Epoch: 02 October)

Event Time Altitude Azimuth Distance (km) Brightness Sun altitude
Rises 19:58:20 0° 172° (S) 2,859 ? 59.0°
Reaches altitude 10° 20:01:06 10° 155° (SSE) 1,926 ? 58.9°
Maximum altitude 20:04:13 20° 108° (ESE) 1,380 ? 58.8°
Drops below altitude 10° 20:07:17 10° 61° (ENE) 1,893 ? 58.7°
Sets 20:09:58 0° 44° (NE) 2,793 ? 58.6°
